星链-5466 (STARLINK-5466 )

导读 | 星芒AI

STARLINK-5466 是 SpaceX Starlink 卫星互联网项目中的一颗低轨道通信卫星。它属于 Starlink 群体部署的一部分,旨在为全球用户提供高速、低延迟的互联网服务。该卫星运行在约 550 公里的轨道高度,配备先进通信设备,支持宽带数据传输。作为 Starlink 计划的组成部分,STARLINK-5466 有助于扩大网络覆盖范围,特别是在偏远和网络基础设施薄弱的地区。其部署体现了 SpaceX 在推动全球互联网普及和航天技术创新方面的努力。

基本信息
目录编号:
54765
目录名称:
STARLINK-5466
国际标识:
2022-175H
轨道中心:
EARTH
卫星名称:
星链-5466
卫星全名:
星链-5466 (STARLINK-5466 )
卫星状态:
已陨落 最后检测时间 2025-01-09
发射日期:
2022-12-17 UTC
国别 :
美国 (US)
星等 :
--
轨道信息
数据来源 国际轨道数据
星历时间: 2025-01-09T07:54:00+0800
轨道信息已过期346天
半长轴: 6530.888km
偏心率: 0.0001776
轨道倾角: 53.200°
近地点辐角 356.322°
升交点赤经 124.644°
平近点角 143.298°
近地点: 151.593km
远地点: 153.913km
周期: 87.542分钟
每日圈数: 16.449189
详细信息
固有亮度:
5
最大亮度:
2.5
卫星平台:
Starlink v1.5
覆盖范围:
全球
运营商:
太空探索技术公司
运营商所在国:
美国
制造商(研发单位):
太空探索技术公司
制造商所在国:
美国
使用方式:
暂无
卫星简介
星链(Starlink)计划是由太空探索技术公司(SpaceX)提出的一个巨型低轨卫星互联网星座项目,计划在2019年至2024年间在太空搭建由约1.2万颗卫星组成的“星链”网络,其中1584颗将部署在地球上空550千米处的近地轨道,并从2020年开始工作。该卫星仍在工作。